Weather History for Pinedale, WY

Change the Weather History Date:

Monday, November 19, 2012

  Actual Average (KBPI) Record (KBPI)
Temperature  
Mean Temperature 32 °F 22 °F  
Max Temperature 37 °F 35 °F 56 °F (2008)
Min Temperature 26 °F 8 °F -10 °F (1994)
Degree Days  
Heating Degree Days 34 43  
Month to date heating degree days 727  
Since 1 July heating degree days 2307  
Cooling Degree Days 0 0  
Month to date cooling degree days 0  
Year to date cooling degree days 35  
Moisture  
Dew Point 31 °F    
Average Humidity 98    
Maximum Humidity 100    
Minimum Humidity 81    
Precipitation  
Precipitation 0.00 in 0.01 in 0.05 in (1982)
Month to date precipitation 0.14  
Year to date precipitation 6.11  
Sea Level Pressure  
Sea Level Pressure 30.26 in    
Wind  
Wind Speed 2 mph (WNW)    
Max Wind Speed 6 mph    
Max Gust Speed -    
Visibility 8 miles    
Events Fog    
T = Trace of Precipitation, MM = Missing Value Source: NWS Daily Summary

Daily Weather History Graph

Daily Weather History Graph

Search for Another Location

Airport:

Trip Planner

Search our weather history database for the weather conditions in past years. The results will help you decide how hot, cold, wet, or windy it might be!

Date:

Astronomy

Nov. 19, 2012 Rise Set
Actual Time 7:16 AM MST 4:52 PM MST
Civil Twilight 6:45 AM MST 5:23 PM MST
Nautical Twilight 6:11 AM MST 5:57 PM MST
Astronomical Twilight 5:37 AM MST 6:31 PM MST
Moon 12:18 PM MST (11/19) 11:27 PM MST (11/19)
Length of Visible Light 10h 37m
Length of Day
9h 35m
Waxing Crescent, 41% of the Moon is Illuminated
Nov 19
Waxing Crescent
Nov 20
First Quarter
Nov 28
Full
Dec 6
Last Quarter
Dec 13
New

Hourly Weather History & Observations

Time (MST) Temp. Windchill Dew Point Humidity Pressure Visibility Wind Dir Wind Speed Gust Speed Precip Events Conditions
12:15 AM 30.2 °F 26.7 °F 30.2 °F 100% 30.16 in 10.0 mi West 3.5 mph - N/A   Overcast
12:35 AM 30.2 °F 26.7 °F 30.2 °F 100% 30.17 in 10.0 mi West 3.5 mph - N/A   Overcast
12:55 AM 30.2 °F 26.7 °F 30.2 °F 100% 30.18 in 10.0 mi West 3.5 mph - N/A   Overcast
1:35 AM 30.2 °F 26.7 °F 30.2 °F 100% 30.18 in 10.0 mi SE 3.5 mph - N/A   Overcast
1:55 AM 28.4 °F - 28.4 °F 100% 30.18 in 10.0 mi Calm Calm - N/A   Mostly Cloudy
2:15 AM 28.4 °F 24.6 °F 28.4 °F 100% 30.19 in 4.0 mi North 3.5 mph - N/A   Mostly Cloudy
2:35 AM 26.6 °F 21.2 °F 26.6 °F 100% 30.19 in 7.0 mi NE 4.6 mph - N/A   Mostly Cloudy
2:55 AM 28.4 °F 24.6 °F 28.4 °F 100% 30.20 in 10.0 mi East 3.5 mph - N/A   Overcast
3:15 AM 28.4 °F - 28.4 °F 100% 30.21 in 10.0 mi Calm Calm - N/A   Mostly Cloudy
3:35 AM 28.4 °F - 28.4 °F 100% 30.20 in 10.0 mi Calm Calm - N/A   Overcast
3:55 AM 28.4 °F - 28.4 °F 100% 30.21 in 10.0 mi Calm Calm - N/A   Mostly Cloudy
4:15 AM 28.4 °F - 28.4 °F 100% 30.21 in 7.0 mi Calm Calm - N/A   Overcast
4:35 AM 28.4 °F - 28.4 °F 100% 30.21 in 1.0 mi Calm Calm - N/A   Overcast
4:55 AM 28.4 °F - 28.4 °F 100% 30.22 in 1.5 mi Calm Calm - N/A   Overcast
5:15 AM 28.4 °F - 28.4 °F 100% 30.22 in 7.0 mi Calm Calm - N/A   Overcast
5:35 AM 30.2 °F - 30.2 °F 100% 30.22 in 2.0 mi Calm Calm - N/A   Overcast
5:55 AM 30.2 °F 26.7 °F 30.2 °F 100% 30.23 in 0.5 mi NE 3.5 mph - N/A Fog Light Freezing Fog
6:35 AM 30.2 °F - 30.2 °F 100% 30.24 in 7.0 mi Calm Calm - N/A   Overcast
6:55 AM 30.2 °F - 30.2 °F 100% 30.25 in 0.5 mi Calm Calm - N/A Fog Light Freezing Fog
7:15 AM 30.2 °F - 30.2 °F 100% 30.24 in 0.5 mi Calm Calm - N/A Fog Light Freezing Fog
7:35 AM 30.2 °F - 30.2 °F 100% 30.24 in 0.8 mi Calm Calm - N/A   Overcast
7:55 AM 30.2 °F 24.3 °F 30.2 °F 100% 30.26 in 0.5 mi NW 5.8 mph - N/A Fog Light Freezing Fog
8:15 AM 30.2 °F - 30.2 °F 100% 30.26 in 1.0 mi Calm Calm - N/A   Overcast
8:35 AM 30.2 °F 26.7 °F 30.2 °F 100% 30.27 in 4.0 mi ENE 3.5 mph - N/A   Overcast
8:55 AM 30.2 °F - 30.2 °F 100% 30.27 in 4.0 mi Calm Calm - N/A   Overcast
9:15 AM 30.2 °F - 30.2 °F 100% 30.27 in 7.0 mi Calm Calm - N/A   Overcast
9:35 AM 32.0 °F - 32.0 °F 100% 30.27 in 10.0 mi Calm Calm - N/A   Overcast
9:55 AM 32.0 °F - 32.0 °F 100% 30.28 in 10.0 mi Calm Calm - N/A   Overcast
10:15 AM 32.0 °F - 32.0 °F 100% 30.27 in 10.0 mi Calm Calm - N/A   Overcast
10:35 AM 32.0 °F - 32.0 °F 100% 30.29 in 10.0 mi Calm Calm - N/A   Overcast
10:55 AM 32.0 °F - 32.0 °F 100% 30.29 in 10.0 mi Calm Calm - N/A   Mostly Cloudy
11:15 AM 32.0 °F 28.7 °F 32.0 °F 100% 30.29 in 10.0 mi East 3.5 mph - N/A   Mostly Cloudy
11:35 AM 33.8 °F 29.6 °F 33.8 °F 100% 30.29 in 10.0 mi SSE 4.6 mph - N/A   Mostly Cloudy
11:55 AM 33.8 °F 30.8 °F 33.8 °F 100% 30.29 in 10.0 mi SE 3.5 mph - N/A   Overcast
12:15 PM 33.8 °F - 33.8 °F 100% 30.28 in 10.0 mi Calm Calm - N/A   Overcast
12:35 PM 35.6 °F - 33.8 °F 93% 30.27 in 10.0 mi Calm Calm - N/A   Overcast
12:55 PM 35.6 °F - 32.0 °F 87% 30.27 in 10.0 mi Calm Calm - N/A   Overcast
1:15 PM 35.6 °F - 32.0 °F 87% 30.27 in 10.0 mi Calm Calm - N/A   Overcast
1:35 PM 37.4 °F 34.9 °F 33.8 °F 87% 30.27 in 10.0 mi SSE 3.5 mph - N/A   Overcast
1:55 PM 37.4 °F - 33.8 °F 87% 30.27 in 10.0 mi Calm Calm - N/A   Overcast
2:15 PM 37.4 °F - 33.8 °F 87% 30.27 in 10.0 mi Calm Calm - N/A   Overcast
2:35 PM 37.4 °F - 33.8 °F 87% 30.27 in 10.0 mi Calm Calm - N/A   Overcast
2:55 PM 37.4 °F - 32.0 °F 81% 30.27 in 10.0 mi Calm Calm - N/A   Overcast
3:15 PM 37.4 °F - 33.8 °F 87% 30.27 in 10.0 mi Calm Calm - N/A   Light Drizzle
3:35 PM 35.6 °F 32.8 °F 33.8 °F 93% 30.27 in 10.0 mi NNW 3.5 mph - N/A   Overcast
3:55 PM 35.6 °F 32.8 °F 33.8 °F 93% 30.27 in 10.0 mi NW 3.5 mph - N/A   Overcast
4:15 PM 35.6 °F - 33.8 °F 93% 30.27 in 10.0 mi Calm Calm - N/A   Overcast
4:35 PM 35.6 °F 32.8 °F 33.8 °F 93% 30.28 in 10.0 mi SSW 3.5 mph - N/A   Overcast
4:55 PM 33.8 °F - 33.8 °F 100% 30.28 in 10.0 mi Calm Calm - N/A   Overcast
5:15 PM 33.8 °F 29.6 °F 33.8 °F 100% 30.28 in 10.0 mi NW 4.6 mph - N/A   Overcast
5:35 PM 33.8 °F 30.8 °F 33.8 °F 100% 30.28 in 10.0 mi West 3.5 mph - N/A   Overcast
5:55 PM 32.0 °F 27.5 °F 32.0 °F 100% 30.29 in 10.0 mi WNW 4.6 mph - N/A   Overcast
6:15 PM 32.0 °F - 32.0 °F 100% 30.29 in 10.0 mi Calm Calm - N/A   Overcast
6:35 PM 32.0 °F 28.7 °F 32.0 °F 100% 30.29 in 10.0 mi WSW 3.5 mph - N/A   Overcast
6:55 PM 33.8 °F 30.8 °F 33.8 °F 100% 30.30 in 10.0 mi WNW 3.5 mph - N/A   Overcast
7:15 PM 32.0 °F - 32.0 °F 100% 30.29 in 10.0 mi Calm Calm - N/A   Overcast
7:35 PM 32.0 °F 28.7 °F 32.0 °F 100% 30.29 in 10.0 mi WNW 3.5 mph - N/A   Overcast
7:55 PM 32.0 °F - 32.0 °F 100% 30.29 in 10.0 mi Calm Calm - N/A   Overcast
8:15 PM 32.0 °F 28.7 °F 32.0 °F 100% 30.29 in 10.0 mi West 3.5 mph - N/A   Overcast
8:35 PM 32.0 °F 27.5 °F 32.0 °F 100% 30.29 in 7.0 mi West 4.6 mph - N/A   Mostly Cloudy
8:55 PM 32.0 °F - 32.0 °F 100% 30.29 in 10.0 mi Calm Calm - N/A   Overcast
9:15 PM 32.0 °F 28.7 °F 32.0 °F 100% 30.29 in 7.0 mi NW 3.5 mph - N/A   Overcast
9:35 PM 32.0 °F 28.7 °F 32.0 °F 100% 30.29 in 7.0 mi NW 3.5 mph - N/A   Overcast
9:55 PM 32.0 °F - 32.0 °F 100% 30.29 in 7.0 mi Calm Calm - N/A   Mostly Cloudy
10:15 PM 30.2 °F - 30.2 °F 100% 30.29 in 4.0 mi Calm Calm - N/A   Scattered Clouds
10:35 PM 30.2 °F 26.7 °F 30.2 °F 100% 30.30 in 0.8 mi West 3.5 mph - N/A   Mostly Cloudy
10:55 PM 30.2 °F - 30.2 °F 100% 30.29 in 4.0 mi Calm Calm - N/A   Scattered Clouds
11:15 PM 30.2 °F - 30.2 °F 100% 30.29 in 7.0 mi Calm Calm - N/A   Clear
11:35 PM 28.4 °F - 28.4 °F 100% 30.30 in 10.0 mi Calm Calm - N/A   Clear
11:55 PM 28.4 °F 23.3 °F 28.4 °F 100% 30.30 in 7.0 mi West 4.6 mph - N/A   Clear